Location: Goldmont Forest
(38.0233°N, 120.2524°W)
Time: 23:52:16
(UTC+00:00)

USA 229 DEB - Pass Details

Date: 05 August 2024
Orbit: 881 x 1330 km, 63.4° (Epoch: 31 August)

Event Time Altitude Azimuth Distance (km) Brightness Sun altitude
Rises 12:02:17 0° 326° (NW) 4,045 6.7 -12.3°
Reaches altitude 10° 12:04:55 10° 326° (NW) 3,138 6.1 -11.9°
Maximum altitude 12:12:35 83° 240° (WSW) 1,289 4.1 -10.6°
Drops below altitude 10° 12:20:49 10° 153° (SSE) 3,345 6.3 -9.2°
Sets 12:23:42 0° 153° (SSE) 4,324 6.9 -8.7°
